Terug naar catalogus

STARLINK-35967

ActiefCommunicatieVLEO
NORAD 66634·PAYLOAD·🇺🇸 United States

Gelanceerd Nov 23, 2025 vanaf Vandenberg Space Force Base

Loading…

Volgende Passages (komende 24 uur)

TLE

VersSource: CelesTrak SupGP

Epoch: Sep 15, 2026, 03:25 UTC

1 66634C 25271T   26258.14284722  .00068560  00000+0  20253-2 0  2581
2 66634  53.1595 334.9100 0001145  92.1817 272.2272 15.34361066    14

Volg STARLINK-35967 in realtime met AllMySat

Download on the App Store